IRIDIUM 47 DEB, 40251

Orbit data source: Space-Track

IRIDIUM 47 DEB, 40251 is space debris in LEO originally from a launch on Sat, 20 Dec 1997 UTC launched from the Air Force Western Test Range (AFWTR). Debris objects in space refer to the collection of defunct objects orbiting the Earth. Examples of debris include non-operational satellites, rocket bodies, and fragments generated from explosions, collisions, or faulty payload assembly.

Loading next visibility...
IRIDIUM 47 DEB details
Identifier
40251, 1997-082L
Orbit
LEO
Last TLE update17 hours ago
Origin
Flag of USIridium (US)
ManufacturerUnknown
MissionSpacecraft
Bus & MotorUnknown
MassUnknown
Launch date (UTC)
1997-12-20 (27 years ago)
Launch vehicleUnknown
Launch site
Air Force Western Test Range (AFWTR)
Object type
Payload
Rocket body
Debris
Shape & HBRUnknown
Radar Cross SectionSmall (<0.1 m²)

Expand to show TLE details & history

TLE from 17 hours ago
0 IRIDIUM 47 DEB
1 40251U 97082L   24361.08054248  .00013327  00000-0  54863-2 0  9999
2 40251  86.3321 243.4154 0142381  84.8609 276.8812 14.21461112524923
Epoch: 2024-12-26T01:55Z
Definitive object data (Epoch: 2024-12-26T01:55:58.87Z)
Latitude0.00005°
Longitude119.35504°
Altitude812.608 km
Speed7.453 km/s
True Right ascension16h 13m 39s
True Declination0° 00' 00"
Sunlit
Object was in daylight at TLE epoch
Visualization TLE readout
Latitude52.83485°
Longitude123.88208°
Altitude739.652 km
Speed7.537 km/s
Apparent Right ascension10h 33m 10s
Apparent Declination33° 47' 17"
Sunlit
Object is in daylight
Visualization observer readout
Local Sidereal Time18:26:52
Azimuth312.95° NW
Elevation3.062°
Doppler factor1
Orbital elements
Apogee altitude919.849 km
Perigee altitude714.948 km
Semi-major axis7,195.536 km
Eccentricity0.0142381
Inclination86.3321°
RAAN243.4154°
Arg. of periapsis84.8609°
True anomaly275.25814°
Mean anomaly276.8812°
Eccentric anomaly276.06999°
Mean motion3.55589 °/min
BSTAR0.0054863
Orbital period101.24 mins
Loading maneuver chart data...

IRIDIUM 47 DEB Visibility forecast

Observer location: undefined°, undefined

Span
Click to sort rows by Start time (UTC) header in descending order
Start Az.
Max El. time (UTC)
Max El. Az.
Max El.
End time (UTC)
End Az.
9 mins2024-12-27 03:50:16.603Z15.555° NNE2024-12-27 03:55:16.603Z93.606° ESE30.131°2024-12-27 03:59:16.603Z146.997° SSE
5 mins2024-12-27 05:34:16.603Z308.909° NW2024-12-27 05:36:16.603Z276.727° WNW21.395°2024-12-27 05:39:16.603Z234.468° WSW
8 mins2024-12-27 16:55:16.603Z182.861° SSW2024-12-27 16:58:16.603Z203.811° SW44.778°2024-12-27 17:03:16.603Z1.97° NNE
|